This is the latest recevied weather packets stored in our database for station/object IR1CH-3. If no packets are shown the sender has not sent any weather packets the latest 10 day(s).
| Time | Temp. | Humidity | Pressure | Rain* | Wind** | Luminosity | Snow |
|---|---|---|---|---|---|---|---|
| 1777637453 | 22.78° C | 31% | 1024.4 hPa | - | - | - | - |
| 1777635652 | 21.67° C | 33% | 1024.9 hPa | - | - | - | - |
| 1777633852 | 22.22° C | 33% | 1025.1 hPa | - | - | - | - |
| 1777632052 | 22.22° C | 35% | 1025.2 hPa | - | - | - | - |
| 1777630251 | 21.67° C | 36% | 1025.3 hPa | - | - | - | - |
| 1777628451 | 21.11° C | 40% | 1025 hPa | - | - | - | - |
| 1777626651 | 20° C | 38% | 1025.1 hPa | - | - | - | - |
| 1777624851 | 19.44° C | 40% | 1024.9 hPa | - | - | - | - |
| 1777623050 | 19.44° C | 44% | 1024.6 hPa | - | - | - | - |
| 1777621250 | 18.89° C | 44% | 1024.5 hPa | - | - | - | - |
| 1777619449 | 18.89° C | 41% | 1024.4 hPa | - | - | - | - |
| 1777617649 | 18.89° C | 41% | 1024.3 hPa | - | - | - | - |
| 1777615849 | 18.33° C | 40% | 1024.2 hPa | - | - | - | - |
| 1777614048 | 18.89° C | 41% | 1024 hPa | - | - | - | - |
| 1777612248 | 16.67° C | 43% | 1023.7 hPa | - | - | - | - |
| 1777610448 | 16.11° C | 44% | 1023.4 hPa | - | - | - | - |
| 1777608647 | 16.11° C | 44% | 1023.2 hPa | - | - | - | - |
| 1777606847 | 16.11° C | 44% | 1023.2 hPa | - | - | - | - |
| 1777605047 | 16.67° C | 45% | 1023.1 hPa | - | - | - | - |
| 1777603247 | 16.11° C | 45% | 1023 hPa | - | - | - | - |
| 1777601446 | 17.22° C | 45% | 1023 hPa | - | - | - | - |
| 1777599646 | 17.22° C | 44% | 1022.6 hPa | - | - | - | - |
| 1777597846 | 17.22° C | 46% | 1022.5 hPa | - | - | - | - |
| 1777596045 | 17.22° C | 46% | 1022.4 hPa | - | - | - | - |
| 1777594245 | 17.22° C | 45% | 1022.3 hPa | - | - | - | - |
* Rain since midnight (hover to see other rain measurements)
** Current wind speed in m/s (hover to see current wind gust speed)